Regional Weather Roundup
Issued by NWS

Home | Current Version | Previous Version | Graphics & Text | Print | Product List | Glossary On
Versions: 1 2 3 4 5 6 7 8 9 10 11 12 13 14 15 16 17 18 19 20 21 22 23 24 25 26 27 28 29 30 31 32 33 34 35 36 37 38 39 40 41 42 43 44 45 46 47 48 49 50
000
ASUS45 KCYS 022210
RWRWY

WYOMING REGIONAL WEATHER ROUNDUP
NATIONAL WEATHER SERVICE CHEYENNE WY
400 PM MDT TUE SEP 02 2014

NOTE:  "FAIR" INDICATES FEW OR NO CLOUDS BELOW 12,000 FEET
WITH NO SIGNIFICANT WEATHER AND/OR OBSTRUCTIONS TO VISIBILITY.

WYZ001-022300-
YELLOWSTONE NATIONAL PARK

CITY           SKY/WX    TMP DP  RH WIND       PRES   REMARKS
LK YELLOWSTONE   N/A     62  35  36 VRB6G17   30.11F
W YELLOWSTONE  NOT AVBL

$$
WYZ002>013-054>058-071-098>099-022300-
NORTHERN WYOMING

CITY           SKY/WX    TMP DP  RH WIND       PRES   REMARKS
JACKSON        SUNNY     75  36  23 S13G22    30.01F
CODY           SUNNY     79  34  19 SE9       29.84F
GREYBULL       SUNNY     82  29  14 S7        29.80F
WORLAND        SUNNY     82  31  15 VRB3      29.82F
SHERIDAN       SUNNY     81  41  24 VRB6      29.82F
BUFFALO        SUNNY     77  36  22 VRB5      29.88F
GILLETTE       SUNNY     80  33  18 MISG      29.86F
HULETT         FAIR      79  34  19 MISG      29.89
NEWCASTLE      FAIR      77  28  16 CALM      29.91

$$
WYZ014>020-022>026-101>103-022300-
CENTRAL WYOMING

CITY           SKY/WX    TMP DP  RH WIND       PRES   REMARKS
BIG PINEY      SUNNY     75  32  20 W17       30.08F
PINEDALE       CLEAR     70  32  24 N5        30.08F
DUBOIS         FAIR      70  28  21 W15G29    30.02F
LANDER         SUNNY     82  28  14 N6        29.90F
RIVERTON       SUNNY     80  23  12 SW7       29.92F
CASPER         SUNNY     84  24  11 W29G37    29.90F
DOUGLAS        SUNNY     83  28  13 NW10      29.92F

$$
WYZ021-027>030-104>119-022300-
SOUTHERN WYOMING

CITY           SKY/WX    TMP DP  RH WIND       PRES   REMARKS
EVANSTON       SUNNY     78  34  20 SW25G38   30.11F
KEMMERER       CLEAR     73  30  20 W23G31    30.10F
FORT BRIDGER   FAIR      80  29  15 W26G33    30.13F
ROCK SPRINGS   SUNNY     78  32  18 SW20G31   30.07F
DIXON          FAIR      80  36  20 W16G22    30.10F
RAWLINS        SUNNY     78  30  17 SW18G31   30.07F
SARATOGA       FAIR      77  32  19 SW15G29   30.11S
LARAMIE        SUNNY     77  32  19 W21G32    30.09F
CHEYENNE       SUNNY     83  29  14 W13G22    30.02F
TORRINGTON     SUNNY     86  33  15 W12       29.88F
PINE BLUFFS    FAIR      82  36  18 S8G16     29.98F

$$



USA.gov is the U.S. government's official web portal to all federal, state and local government web resources and services.